When you browse on this site, cookies collect data to enhance your experience and personalize the content and advertising you see.
Visit our Privacy Policy to learn more. By continuing to use the site, you agree to this use of cookies and data.
  • In Netherlands
  • List of Countries
  • For 7 days
  • Water Temperature
  • Weather Map
  • Weather Widgets
  • user-avatar
    Login

    Hourly Weather Hrazdan

    Today, 26 May, Tuesday

    Time Temperature Precipitation Wind Pressure Humidity
    00:00 +5°C° 0 mm 2 mps 612 mmHg 83%
    01:00 +5°C° 0 mm 2 mps 612 mmHg 82%
    02:00 +4°C° 0 mm 2 mps 612 mmHg 82%
    03:00 +5°C° 0 mm 1 mps 612 mmHg 82%
    04:00 +6°C° 0 mm 1 mps 613 mmHg 81%
    05:00 +7°C° 0 mm 1 mps 613 mmHg 80%
    06:00 +8°C° 0 mm 1 mps 614 mmHg 80%
    07:00 +9°C° 0 mm 1 mps 614 mmHg 74%
    08:00 +10°C° 0 mm 2 mps 615 mmHg 67%
    09:00 +13°C° 0 mm 2 mps 616 mmHg 62%
    10:00 +14°C° 0 mm 2 mps 616 mmHg 59%
    11:00 +15°C° 0 mm 2 mps 616 mmHg 57%
    12:00 +16°C° 0 mm 2 mps 617 mmHg 55%
    13:00 +17°C° 0 mm 2 mps 617 mmHg 54%
    14:00 +17°C° 0 mm 2 mps 617 mmHg 53%
    15:00 +18°C° 0 mm 2 mps 617 mmHg 52%
    16:00 +18°C° 0 mm 1 mps 617 mmHg 57%
    17:00 +18°C° 0 mm 1 mps 617 mmHg 62%
    18:00 +18°C° 0 mm 1 mps 617 mmHg 68%
    19:00 +15°C° 0 mm 1 mps 616 mmHg 71%
    20:00 +13°C° 0 mm 1 mps 616 mmHg 75%
    21:00 +10°C° 0 mm 2 mps 615 mmHg 78%
    22:00 +10°C° 0 mm 2 mps 615 mmHg 80%
    23:00 +10°C° 0 mm 2 mps 615 mmHg 81%

    Tomorrow, 27 May, Wednesday

    Time Temperature Precipitation Wind Pressure Humidity
    00:00 +10°C° 0 mm 2 mps 616 mmHg 83%
    01:00 +9°C° 0 mm 2 mps 615 mmHg 83%
    02:00 +9°C° 0 mm 2 mps 615 mmHg 84%
    03:00 +10°C° 0 mm 1 mps 615 mmHg 84%
    04:00 +11°C° 0 mm 1 mps 616 mmHg 83%
    05:00 +11°C° 0 mm 1 mps 616 mmHg 83%
    06:00 +12°C° 0 mm 1 mps 617 mmHg 82%
    07:00 +14°C° 0 mm 1 mps 617 mmHg 75%
    08:00 +15°C° 0 mm 2 mps 618 mmHg 69%
    09:00 +17°C° 0 mm 2 mps 618 mmHg 62%
    10:00 +18°C° 0 mm 2 mps 619 mmHg 59%
    11:00 +19°C° 0 mm 2 mps 619 mmHg 56%
    12:00 +20°C° 0 mm 2 mps 619 mmHg 54%
    13:00 +20°C° 0 mm 2 mps 618 mmHg 54%
    14:00 +20°C° 0 mm 2 mps 618 mmHg 54%
    15:00 +20°C° 0 mm 2 mps 618 mmHg 54%
    16:00 +20°C° 0.1 mm 2 mps 618 mmHg 60%
    17:00 +20°C° 0.1 mm 1 mps 617 mmHg 66%
    18:00 +19°C° 0.1 mm 1 mps 617 mmHg 71%
    19:00 +18°C° 0 mm 1 mps 616 mmHg 74%
    20:00 +15°C° 0 mm 1 mps 616 mmHg 77%
    21:00 +13°C° 0 mm 1 mps 616 mmHg 79%
    22:00 +13°C° 0 mm 1 mps 615 mmHg 76%
    23:00 +13°C° 0 mm 1 mps 615 mmHg 73%

    Day after tomorrow, 28 May, Thursday

    Time Temperature Precipitation Wind Pressure Humidity
    00:00 +13°C° 0 mm 1 mps 615 mmHg 70%
    01:00 +12°C° 0 mm 1 mps 615 mmHg 68%
    02:00 +12°C° 0 mm 1 mps 615 mmHg 67%
    03:00 +12°C° 0 mm 1 mps 615 mmHg 65%
    04:00 +13°C° 0 mm 1 mps 615 mmHg 65%
    05:00 +14°C° 0 mm 1 mps 615 mmHg 65%
    06:00 +15°C° 0 mm 1 mps 616 mmHg 65%
    07:00 +18°C° 0 mm 1 mps 616 mmHg 60%
    08:00 +20°C° 0 mm 1 mps 617 mmHg 54%
    09:00 +22°C° 0 mm 1 mps 617 mmHg 49%
    10:00 +22°C° 0 mm 1 mps 617 mmHg 47%
    11:00 +23°C° 0 mm 2 mps 617 mmHg 44%
    12:00 +24°C° 0 mm 2 mps 617 mmHg 42%
    13:00 +24°C° 0.1 mm 2 mps 617 mmHg 42%
    14:00 +24°C° 0.1 mm 2 mps 616 mmHg 41%
    15:00 +24°C° 0.1 mm 2 mps 616 mmHg 40%
    16:00 +23°C° 0.1 mm 1 mps 615 mmHg 47%
    17:00 +22°C° 0.1 mm 1 mps 615 mmHg 54%
    18:00 +21°C° 0.1 mm 1 mps 615 mmHg 60%
    19:00 +19°C° 0.1 mm 1 mps 614 mmHg 63%
    20:00 +16°C° 0.1 mm 2 mps 614 mmHg 65%
    21:00 +14°C° 0.1 mm 2 mps 614 mmHg 67%
    22:00 +14°C° 0.1 mm 2 mps 614 mmHg 64%
    23:00 +15°C° 0.1 mm 2 mps 614 mmHg 62%

    29 May, Friday

    Time Temperature Precipitation Wind Pressure Humidity
    00:00 +15°C° 0.1 mm 1 mps 614 mmHg 59%
    01:00 +14°C° 0.1 mm 1 mps 613 mmHg 61%
    02:00 +13°C° 0.1 mm 2 mps 612 mmHg 62%
    03:00 +12°C° 0.1 mm 2 mps 611 mmHg 64%
    04:00 +13°C° 0.1 mm 2 mps 611 mmHg 66%
    05:00 +14°C° 0.1 mm 2 mps 612 mmHg 68%
    06:00 +14°C° 0.1 mm 2 mps 612 mmHg 70%
    07:00 +17°C° 0 mm 2 mps 612 mmHg 63%
    08:00 +19°C° 0 mm 2 mps 613 mmHg 56%
    09:00 +22°C° 0 mm 1 mps 613 mmHg 49%
    10:00 +22°C° 0 mm 3 mps 613 mmHg 47%
    11:00 +23°C° 0 mm 4 mps 613 mmHg 45%
    12:00 +25°C° 0 mm 5 mps 613 mmHg 42%
    13:00 +25°C° 0.1 mm 5 mps 613 mmHg 43%
    14:00 +25°C° 0.1 mm 5 mps 612 mmHg 43%
    15:00 +25°C° 0.1 mm 5 mps 612 mmHg 43%
    16:00 +23°C° 0.1 mm 4 mps 612 mmHg 49%
    17:00 +22°C° 0.1 mm 3 mps 612 mmHg 56%
    18:00 +21°C° 0.1 mm 2 mps 611 mmHg 62%
    19:00 +19°C° 0.1 mm 2 mps 611 mmHg 60%
    20:00 +16°C° 0.1 mm 2 mps 611 mmHg 58%
    21:00 +14°C° 0.1 mm 2 mps 610 mmHg 56%
    22:00 +14°C° 0.1 mm 2 mps 610 mmHg 54%
    23:00 +13°C° 0.1 mm 2 mps 610 mmHg 52%

    30 May, Saturday

    Time Temperature Precipitation Wind Pressure Humidity
    00:00 +12°C° 0.1 mm 2 mps 610 mmHg 49%
    01:00 +12°C° 0 mm 2 mps 610 mmHg 51%
    02:00 +10°C° 0 mm 2 mps 609 mmHg 52%
    03:00 +9°C° 0 mm 2 mps 609 mmHg 53%
    04:00 +10°C° 0 mm 2 mps 609 mmHg 56%
    05:00 +10°C° 0 mm 2 mps 610 mmHg 58%
    06:00 +10°C° 0 mm 2 mps 610 mmHg 61%
    07:00 +12°C° 0 mm 3 mps 611 mmHg 53%
    08:00 +13°C° 0 mm 4 mps 612 mmHg 45%
    09:00 +15°C° 0 mm 5 mps 613 mmHg 37%
    10:00 +15°C° 0 mm 5 mps 613 mmHg 37%
    11:00 +16°C° 0 mm 5 mps 613 mmHg 36%
    12:00 +17°C° 0 mm 5 mps 614 mmHg 36%
    13:00 +18°C° 0 mm 4 mps 614 mmHg 36%
    14:00 +18°C° 0 mm 3 mps 614 mmHg 36%
    15:00 +19°C° 0 mm 3 mps 614 mmHg 36%
    16:00 +18°C° 0 mm 2 mps 614 mmHg 42%
    17:00 +18°C° 0 mm 2 mps 614 mmHg 48%
    18:00 +18°C° 0 mm 1 mps 614 mmHg 54%
    19:00 +15°C° 0 mm 1 mps 613 mmHg 55%
    20:00 +13°C° 0 mm 1 mps 613 mmHg 56%
    21:00 +11°C° 0 mm 1 mps 612 mmHg 56%
    22:00 +11°C° 0 mm 1 mps 613 mmHg 58%
    23:00 +10°C° 0 mm 1 mps 613 mmHg 60%

    31 May, Sunday

    Time Temperature Precipitation Wind Pressure Humidity
    00:00 +10°C° 0 mm 1 mps 613 mmHg 62%
    01:00 +10°C° 0 mm 1 mps 613 mmHg 62%
    02:00 +10°C° 0 mm 1 mps 613 mmHg 63%
    03:00 +9°C° 0 mm 1 mps 613 mmHg 64%
    04:00 +10°C° 0 mm 1 mps 613 mmHg 65%
    05:00 +11°C° 0 mm 1 mps 614 mmHg 66%
    06:00 +12°C° 0 mm 1 mps 614 mmHg 67%
    07:00 +14°C° 0 mm 1 mps 615 mmHg 62%
    08:00 +16°C° 0 mm 1 mps 616 mmHg 58%
    09:00 +18°C° 0 mm 2 mps 616 mmHg 53%
    10:00 +18°C° 0.1 mm 2 mps 616 mmHg 51%
    11:00 +19°C° 0.1 mm 2 mps 616 mmHg 48%
    12:00 +20°C° 0.1 mm 2 mps 617 mmHg 46%
    13:00 +20°C° 0.1 mm 2 mps 616 mmHg 45%
    14:00 +20°C° 0.1 mm 2 mps 616 mmHg 44%
    15:00 +21°C° 0.1 mm 2 mps 616 mmHg 44%
    16:00 +20°C° 0.1 mm 2 mps 615 mmHg 51%
    17:00 +19°C° 0.1 mm 2 mps 615 mmHg 58%
    18:00 +19°C° 0.1 mm 1 mps 615 mmHg 65%
    19:00 +16°C° 0.1 mm 1 mps 614 mmHg 70%
    20:00 +14°C° 0.1 mm 2 mps 614 mmHg 75%
    21:00 +12°C° 0.1 mm 2 mps 613 mmHg 80%
    22:00 +12°C° 0 mm 2 mps 613 mmHg 79%
    23:00 +12°C° 0 mm 2 mps 613 mmHg 78%
    Show more